Zurück zum Katalog

CZ-3A DEB

LostHEO
NORAD 36965·DEBRIS·🇨🇳 China

Gestartet Feb 2, 2007 von Xichang Satellite Launch Center

Loading…

Nächste Überflüge (nächste 24 Stunden)

TLE

VeraltetSource: Space-Track

Epoche: Nov 15, 2025, 01:16 UTC

1 36965U 07003AB  25319.05285693  .00000110  00000-0  65290-2 0  9993
2 36965  26.2985  74.9871 7586072 206.9895 356.0015  1.75366248 81622

Verfolge CZ-3A DEB in Echtzeit mit AllMySat

Download on the App Store